Regional Weather Roundup
Issued by NWS

Home | Current Version | Previous Version | Graphics & Text | Print | Product List | Glossary On
Versions: 1 2 3 4 5 6 7 8 9 10 11 12 13 14 15 16 17 18 19 20 21 22 23 24 25 26 27 28 29 30 31 32 33 34 35 36 37 38 39 40 41 42 43 44 45 46 47 48 49 50
305
ASUS43 KDTX 080501
RWRMI
MICHIGAN HOURLY REGIONAL WEATHER ROUNDUP
NATIONAL WEATHER SERVICE DETROIT/PONTIAC MI
1200 AM EST THU DEC 08 2016

NOTE: "FAIR" INDICATES FEW OR NO CLOUDS BELOW 12,000 FEET WITH NO
SIGNIFICANT WEATHER AND/OR OBSTRUCTION TO VISIBILITY.

MIZ047>049-052>055-059>063-066>070-074>076-081>083-080600-
SOUTHEAST LOWER MICHIGAN

CITY           SKY/WX    TMP DP  RH WIND       PRES   REMARKS
ADRIAN         CLOUDY    28  20  71 W14G23    30.06S WCI  17
ALMA           CLOUDY    29  21  70 W17G24    29.98R WCI  17
ANN ARBOR      CLOUDY    30  21  69 SW14G24   30.02S WCI  19
BAD AXE        CLOUDY    32  22  66 W22       29.92S WCI  19
CARO           CLOUDY    32  24  72 W15G21    29.94R WCI  22
DETROIT CITY   CLOUDY    31  21  66 W10       30.02S WCI  22
DETROIT        CLOUDY    31  21  66 SW14      30.04S WCI  21
FLINT          CLOUDY    32  22  66 W17       29.97S WCI  21
GROSSE ILE     CLOUDY    31  21  67 W8        30.04S WCI  23
HILLSDALE      CLOUDY    27  19  74 W13G20    30.03R WCI  16
HOWELL         CLOUDY    31  21  67 W15G23    29.99S WCI  20

CITY           SKY/WX    TMP DP  RH WIND       PRES   REMARKS
JACKSON        CLOUDY    29  20  69 W15       30.02S WCI  18
LAMBERTVILLE   CLOUDY    31  21  67 W13       30.07S WCI  21
LANSING        CLOUDY    30  20  66 W20G28    30.01R WCI  17
LAPEER         NOT AVBL
MASON          CLOUDY    30  22  70 W16G23    30.01S WCI  19
MONROE         CLOUDY    30  22  71 W17       30.05S WCI  18
MT. CLEMENS    CLOUDY    32  21  64 SW10      29.98S WCI  24
PONTIAC        CLOUDY    30  21  69 W13       29.97S WCI  20
PORT HOPE        N/A     32  21  64 W10G24    29.89S WCI  24
PORT HURON     CLOUDY    32  23  69 SW6       29.98S WCI  26
TRI CITIES     CLOUDY    31  22  69 W20G31    29.96S WCI  19
MIDLAND        CLOUDY    31  19  61 W16G26    29.95R WCI  20
TROY           CLOUDY    32  20  61 SW13G20   30.02R WCI  22
SAGINAW HB     CLOUDY    32  21  64 W16G22    29.96R WCI  21
$$
MIZ043>046-050>051-056>058-064>065-071>073-077>080-080600-
SOUTHWEST LOWER MICHIGAN

CITY           SKY/WX    TMP DP  RH WIND       PRES   REMARKS
BATTLE CREEK   CLOUDY    29  21  72 W18G26    30.04S WCI  16
BENTON HARBOR  CLOUDY    28  20  71 W18G25    30.11R WCI  15
BIG RAPIDS     CLOUDY    27  18  69 W16G22    29.97R WCI  15
COLDWATER      CLOUDY    28  21  72 W15       30.06R WCI  17
FREMONT        CLOUDY    26  16  66 W10G20    30.01S WCI  16
HOLLAND        CLOUDY    28  20  71 W18G24    30.06S WCI  15
GRAND RAPIDS   FLURRIES  28  20  71 W22G29    30.04R WCI  14
IONIA          CLOUDY    28  21  75 W20G26    30.00S WCI  15
KALAMAZOO      CLOUDY    29  19  66 W9G22     30.06R WCI  20
LUDINGTON      CLOUDY    26  18  73 W14G25    30.00S WCI  14
MARSHALL       CLOUDY    29  20  70 W13G20    30.03S WCI  18
MOUNT PLEASANT CLOUDY    28  19  70 W14G26    29.96R WCI  16
MUSKEGON       CLOUDY    28  19  69 W13G24    30.05S WCI  17
SOUTH HAVEN    CLOUDY    27  20  76 W14G25    30.09R WCI  16
$$
MIZ016>042-080600-
NORTHERN LOWER MICHIGAN

CITY           SKY/WX    TMP DP  RH WIND       PRES   REMARKS
ALPENA         CLOUDY    30  17  58 SW10G22   29.86S WCI  21
BEAVER ISLAND  CLOUDY    28  21  74 W18G25    29.85S WCI  15
BELLAIRE       CLOUDY    29  19  68 SW9G21    29.90S WCI  20
CADILLAC       CLOUDY    24  17  73 W12G23    29.90R WCI  13
CHARLEVOIX     CLOUDY    29  21  72 W22G30    29.89S WCI  16
FRANKFORT      CLOUDY    28  20  72 W15G25    29.95S WCI  16
GAYLORD        LGT SNOW  25  18  74 W16G26    29.83R WCI  12
GRAYLING       CLOUDY    26  18  71 W9G25     29.88S WCI  17
HARBOR SPRINGS CLOUDY    30  21  68 W17G28    29.84S WCI  18
HOUGHTON LAKE  CLOUDY    25  17  72 W18G32    29.91R WCI  11
MANISTEE       FLURRIES  26  17  68 W14G22    29.98R WCI  14
OSCODA         CLOUDY    31  18  60 W21       29.90R WCI  18
PELLSTON       LGT SNOW  28  20  71 W10       29.84R WCI  19
ROGERS CITY    LGT SNOW  28  25  86 W9        29.85S WCI  20
TRAVERSE CITY  CLOUDY    29  17  61 W16       29.92R WCI  17
$$
MIZ007>008-015-080600-
EASTERN UPPER MICHIGAN

CITY           SKY/WX    TMP DP  RH WIND       PRES   REMARKS
MACKINAC ISLAN CLOUDY    28  20  71 W14G33    29.81S WCI  17
NEWBERRY       MOCLDY    22  14  71 SW15G23   29.79S WCI   9
$$
MIZ004>006-011>014-085-080600-
CENTRAL UPPER MICHIGAN

CITY           SKY/WX    TMP DP  RH WIND       PRES   REMARKS
MANISTIQUE     CLOUDY    22  16  77 W6        29.85R WCI  15
SAWYER-GWINN   MOCLDY    19  12  76 W16       29.81F WCI   4
$$
MIZ001>003-009>011-084-080600-
WESTERN UPPER MICHIGAN

CITY           SKY/WX    TMP DP  RH WIND       PRES   REMARKS
$$

ABBREVIATIONS USED IN REMARKS
   TC - TEMPERATURE IN CELSIUS
  WCI - WIND CHILL INDEX
   HX - HEAT INDEX
  VSB - VISIBILITY





USA.gov is the U.S. government's official web portal to all federal, state and local government web resources and services.